Temp
17 17 16 17 17 16 16 16 15 15 14 14 14 14 14 13 14 14 14 13 13 13 12 12 11 10 10 10 9 9 9 9 9 9 8 8 8 7 7 7 7 7 7
16 16 16 16 16 16 16 16 15 15 15 14 13 13 13 13 13 13 14 13 12 12 12 12 11 10 10 10 10 9 9 9 9 9 8 8 8 7 7 7 7 7 7
15 16 16 16 16 15 15 14 14 14 14 14 13 13 13 12 13 12 13 13 13 11 11 11 10 10 10 10 9 9 9 9 8 8 8 8 8 7 7 7 6 6 6
15 15 16 15 15 15 15 15 15 15 14 14 13 13 12 12 11 11 12 12 12 12 10 10 9 9 8 8 8 8 8 8 8 8 8 8 8 7 7 6 6 6 6
15 16 16 14 14 14 14 14 14 14 14 14 13 12 12 12 11 11 11 11 10 11 11 9 9 8 8 8 7 7 8 8 8 7 7 7 7 7 7 7 6 6 6
15 15 14 13 14 14 14 14 14 13 13 13 13 12 11 11 11 11 10 10 10 10 10 9 9 9 7 7 7 6 7 7 6 6 6 6 6 6 6 6 6 6 6
14 14 14 13 14 14 14 13 13 13 12 12 13 13 11 10 10 10 10 10 9 9 9 9 9 9 8 7 6 5 5 5 5 5 5 5 5 5 5 5 6 6 6
14 14 14 14 14 13 12 12 12 13 12 11 13 13 15 13 10 9 10 9 8 8 9 8 7 7 7 7 6 5 4 4 4 4 4 4 4 4 5 5 5 5 5
14 13 13 14 13 13 13 12 12 12 13 11 10 13 15 16 13 11 9 9 8 8 8 8 7 6 6 6 5 5 3 3 3 2 3 3 3 3 3 4 4 4 5
13 13 13 12 12 13 12 12 11 11 11 12 10 10 10 11 14 13 10 9 8 8 8 7 7 6 6 5 5 4 3 2 2 1 1 1 2 2 2 3 3 3 4
11 12 11 11 11 12 11 11 10 9 10 9 11 11 10 10 9 10 12 12 10 9 8 7 7 6 6 5 5 4 2 1 1 -0 -0 0 0 1 1 1 2 2 2
11 10 10 11 11 11 10 9 8 8 8 10 10 10 10 11 11 10 11 10 10 9 8 7 6 6 6 5 4 3 1 0 -0 -1 -1 -1 -1 -1 -0 0 1 1 1
10 11 10 10 10 10 9 8 8 7 8 9 9 9 9 9 9 9 8 9 9 9 8 6 6 6 5 5 4 2 0 0 -1 -1 -2 -2 -2 -2 -2 -1 -1 0 0
11 11 10 10 10 9 8 7 7 7 7 8 8 8 8 8 8 7 8 8 9 8 8 8 7 6 5 4 3 2 1 1 -0 -2 -3 -3 -3 -3 -2 -2 -2 -1 -1
10 10 9 9 9 8 7 7 7 7 8 7 7 7 7 7 7 7 6 6 7 7 8 8 7 6 5 4 3 2 1 0 -1 -2 -3 -4 -4 -3 -3 -3 -3 -2 -2
10 10 9 8 8 8 7 7 7 8 7 7 7 7 7 7 6 6 6 6 6 6 7 6 6 5 4 3 2 1 0 -1 -1 -2 -3 -3 -4 -4 -4 -4 -3 -3 -3
10 8 8 8 8 7 6 6 8 8 7 7 7 7 6 6 6 6 6 6 6 6 6 6 5 5 4 2 1 1 0 -0 -0 -1 -2 -3 -4 -5 -5 -4 -4 -4 -4
8 9 9 7 7 6 7 7 7 6 6 5 7 7 6 6 6 6 6 5 5 5 5 5 5 4 3 3 1 0 -0 -0 -0 -1 -2 -4 -4 -5 -5 -5 -4 -4 -4
8 9 9 7 6 6 6 7 5 4 4 4 6 6 6 6 6 6 6 5 5 5 5 4 4 3 3 2 1 1 0 -0 -0 -1 -2 -2 -3 -4 -4 -4 -4 -4 -4
9 8 7 6 6 7 6 4 5 3 3 4 5 5 5 5 6 6 6 5 5 5 4 4 3 3 3 2 1 1 1 0 -0 -1 -1 -1 -2 -2 -3 -3 -3 -4 -4
7 7 6 6 5 4 4 5 4 2 2 3 4 5 5 5 5 5 5 5 5 4 4 3 3 3 3 2 2 1 -0 -0 -1 -1 -1 -1 -1 -1 -1 -1 -1 -2 -3
6 6 6 5 4 3 4 4 2 1 2 4 4 5 5 5 3 3 3 3 3 4 4 3 3 2 2 1 1 -0 -1 -1 -0 -1 -1 -2 -1 -1 -1 -0 -1 -2 -3
5 4 3 3 3 3 4 3 2 1 1 3 4 5 5 5 4 3 3 2 2 2 1 1 2 2 1 1 -0 -1 -1 -1 -1 -2 -2 -1 -1 -1 -1 -0 -1 -2 -3
4 3 3 3 4 3 2 2 1 1 2 3 4 4 4 4 5 4 3 3 2 1 -0 -1 -1 0 0 -1 -1 -2 -2 -3 -2 -2 -1 -1 -1 -1 -1 -1 -2 -2 -3
4 4 3 3 2 2 2 2 1 2 2 3 3 3 4 4 4 3 2 3 2 2 1 -0 -1 -1 -2 -3 -3 -3 -3 -2 -2 -1 -1 -2 -2 -2 -2 -2 -1 -2 -2
3 2 2 2 2 2 2 2 1 1 2 2 2 3 3 2 2 2 1 1 2 2 2 0 -2 -3 -4 -4 -5 -5 -4 -3 -2 -2 -2 -2 -2 -3 -3 -3 -2 -2 -2
Height
867 868 870 872 874 876 877 878 880 881 882 881 882 881 881 880 878 878 879 879 879 879 880 879 879 880 881 881 880 879 879 878 878 878 876 875 874 873 872 870 869 867 865
865 868 869 871 873 876 876 879 880 880 882 882 882 880 880 879 878 879 878 878 878 878 879 879 879 880 880 880 879 879 879 878 878 877 876 874 874 872 871 870 869 867 866
865 866 868 871 873 873 875 878 879 879 881 881 881 880 880 879 880 878 878 878 877 877 878 878 879 880 880 879 879 879 878 877 877 876 875 874 873 871 870 869 868 867 865
863 865 867 869 871 874 875 876 877 878 881 881 880 880 878 880 879 878 877 877 878 877 878 878 878 878 878 878 878 878 877 876 875 875 874 873 872 870 868 867 866 865 864
860 866 865 867 870 873 874 875 876 878 879 880 879 879 880 879 879 877 877 877 877 877 877 878 877 877 877 877 876 877 876 875 874 873 872 872 870 868 866 865 863 862 860
859 862 863 865 869 870 871 873 875 877 877 878 877 879 878 878 877 877 876 876 876 876 876 877 876 875 875 875 874 874 874 874 873 872 871 870 868 866 864 862 861 859 857
857 859 861 864 866 867 871 872 874 874 875 877 877 872 875 876 876 876 875 875 875 875 875 875 875 874 873 873 872 872 872 872 871 870 869 867 865 863 861 859 857 855 853
856 858 859 860 864 865 870 871 871 873 875 877 874 870 865 868 871 873 873 873 874 873 873 873 873 872 872 871 869 870 869 869 868 867 866 864 862 860 858 855 853 850 849
853 856 858 858 860 865 867 868 869 871 870 872 872 870 861 857 862 864 870 870 871 870 870 870 870 870 870 869 868 867 865 865 864 864 863 861 859 856 854 851 849 846 843
852 855 856 858 858 860 864 866 867 868 868 866 867 867 867 866 860 858 862 865 867 867 866 867 866 866 866 865 864 864 863 861 860 860 859 857 855 852 849 846 844 841 838
850 854 854 854 855 857 861 864 865 866 866 865 862 862 864 863 864 863 857 857 860 861 862 863 862 862 862 862 862 860 858 858 857 856 854 852 849 846 843 840 837 834 832
846 849 850 851 855 856 859 861 862 862 862 862 860 860 859 859 857 858 857 856 856 858 859 860 859 859 859 859 858 856 855 854 852 850 848 845 843 840 837 834 831 828 826
838 841 846 849 852 854 857 857 857 858 857 857 857 858 857 857 858 858 857 855 854 853 855 856 857 856 856 855 855 852 852 850 846 844 841 839 836 834 831 828 825 822 820
831 837 841 846 849 850 852 854 854 855 853 855 855 855 854 855 856 856 854 853 850 849 848 848 850 851 852 851 850 849 848 845 842 838 835 832 830 827 824 821 818 816 813
831 835 837 841 843 847 849 849 850 852 853 854 853 853 853 853 853 854 853 853 851 846 843 843 844 845 846 846 846 845 843 840 836 832 829 826 823 820 817 815 812 809 806
827 830 833 836 837 840 842 847 849 849 852 852 851 850 851 850 851 851 850 848 848 846 842 842 840 840 841 842 841 839 837 834 829 826 823 820 817 814 811 808 805 802 799
820 823 826 831 832 836 839 842 847 849 850 849 849 848 848 848 848 848 847 846 844 843 839 837 836 836 836 838 836 834 831 828 823 821 818 814 811 808 804 800 797 795 792
816 819 823 827 830 833 839 843 844 846 848 846 845 844 844 844 845 844 843 842 840 838 837 833 833 832 831 831 830 829 826 822 818 815 811 808 805 801 797 794 791 788 786
813 818 823 826 826 830 834 840 842 844 842 842 841 840 839 839 838 838 837 837 835 833 832 831 829 828 827 826 825 823 821 817 813 809 805 802 799 796 792 788 785 782 779
810 815 819 822 830 835 836 838 838 838 839 838 837 836 835 833 832 832 831 830 829 828 827 826 824 823 821 820 820 818 814 811 807 804 800 796 792 788 784 781 779 776 773
807 812 816 819 821 826 833 832 834 835 835 833 831 829 828 826 825 825 824 822 822 822 822 820 818 817 815 815 813 813 810 806 803 800 795 791 788 783 778 775 772 770 769
805 808 813 814 824 829 828 828 830 831 829 827 824 822 820 818 817 816 815 815 816 815 815 815 814 812 810 810 810 809 807 804 797 796 791 787 784 778 773 770 767 766 763
806 809 813 816 822 825 823 825 826 825 823 821 818 816 813 811 809 810 807 807 807 808 809 810 808 807 806 806 806 805 803 799 796 792 790 782 779 774 769 765 763 761 758
808 810 814 816 819 820 820 821 820 819 818 814 812 809 806 804 802 801 802 799 800 800 801 801 802 801 801 801 802 801 799 796 792 788 785 778 774 770 766 762 758 756 753
810 812 814 815 815 815 815 815 816 814 810 807 805 802 799 796 794 794 794 793 792 792 793 793 794 794 794 794 796 797 794 791 786 782 780 775 772 767 764 758 753 751 748
810 811 811 811 811 811 812 811 811 809 805 801 798 794 792 789 787 786 785 785 783 783 784 785 786 786 786 788 788 790 789 786 782 778 776 774 769 767 759 755 751 748 743
Wind_Speed
12 11 12 11 11 10 9 8 8 7 6 6 4 4 5 6 7 5 4 3 2 3 3 6 8 8 6 6 6 6 5 6 5 7 4 6 8 9 12 14 15 17 17
11 11 11 11 10 8 8 7 6 6 4 4 4 5 5 5 6 5 4 4 4 1 4 6 7 7 5 5 2 1 3 3 4 6 6 5 6 9 9 10 13 15 16
13 12 11 11 10 9 9 8 7 5 3 3 3 3 4 5 4 4 3 2 3 3 5 7 6 4 4 2 1 0 3 5 6 8 9 5 9 12 10 10 13 15 15
13 13 13 11 9 10 9 8 5 3 2 2 1 2 2 2 2 2 1 1 0 1 2 9 10 6 3 1 3 5 6 7 8 10 11 12 13 13 9 10 15 16 16
13 13 11 11 12 10 9 7 5 2 1 1 1 1 2 3 2 1 2 2 1 1 2 6 6 5 4 5 4 6 8 10 11 12 13 14 16 16 14 15 16 18 18
14 13 13 14 13 11 9 7 5 3 2 1 3 4 4 4 4 4 3 2 2 2 4 5 5 5 9 8 6 6 8 10 10 11 13 16 17 18 19 20 19 19 20
16 15 14 16 13 11 9 8 6 4 2 3 6 6 5 5 6 6 4 4 4 4 5 7 7 8 6 7 8 4 7 8 10 13 15 16 18 18 19 21 21 22 23
16 17 16 16 13 12 11 9 7 4 4 5 8 5 4 8 8 8 6 6 6 6 7 7 7 8 8 9 9 10 8 8 11 13 15 17 18 20 22 24 24 25 25
17 17 16 16 16 14 11 10 10 9 6 7 9 6 4 4 3 8 9 8 7 8 8 9 9 9 9 10 11 10 9 12 11 11 15 18 20 22 24 26 27 28 28
16 17 17 17 16 13 12 12 10 10 10 8 7 8 6 6 4 4 8 8 8 10 9 11 10 11 11 12 11 14 13 11 12 14 18 21 24 26 27 28 29 30 31
18 19 19 18 17 15 13 12 11 11 9 7 9 6 8 6 7 7 7 8 8 10 9 10 12 13 14 13 13 12 13 15 16 19 21 24 25 26 27 28 29 30 31
21 21 20 20 16 14 14 13 11 11 9 8 6 8 8 7 8 9 8 11 10 10 11 11 13 13 13 14 14 15 16 17 23 25 21 22 24 25 26 27 28 29 29
28 27 24 19 18 17 15 13 14 13 12 10 9 9 8 8 8 9 10 12 12 11 10 11 13 14 14 15 15 15 16 23 25 26 23 24 24 24 25 26 26 27 28
34 28 24 21 19 20 17 14 11 14 10 11 11 10 8 9 9 10 11 11 8 13 14 14 11 14 15 16 17 22 21 23 24 23 25 24 24 25 26 26 26 27 28
24 23 24 23 24 18 16 14 12 12 11 11 10 10 10 9 10 11 11 13 13 9 9 14 14 12 15 17 19 20 24 24 24 28 24 23 24 25 26 26 27 28 29
24 23 24 24 22 22 17 15 13 12 11 11 10 10 10 10 11 12 13 13 14 15 10 16 16 16 15 19 19 22 24 24 26 23 23 23 25 26 27 27 28 29 29
25 26 25 25 27 18 18 16 12 8 10 10 12 12 12 12 13 14 14 14 15 16 17 19 17 18 16 19 21 21 23 24 24 23 22 25 25 26 26 26 25 25 25
22 25 25 24 23 18 15 14 11 6 9 10 15 15 16 16 17 17 17 17 18 17 19 20 19 20 20 18 21 21 22 22 24 24 23 26 26 25 24 23 24 25 27
20 21 21 21 20 18 16 12 7 7 12 14 17 17 19 19 20 20 19 18 19 19 18 19 21 19 20 18 20 20 21 22 22 22 23 24 21 22 23 25 26 26 26
17 19 19 15 12 12 11 10 5 12 14 16 20 23 23 23 23 23 22 21 20 20 19 19 20 20 19 18 18 20 21 20 22 22 23 21 21 23 24 24 24 23 23
16 20 20 17 20 17 12 9 16 15 16 19 22 25 26 27 27 27 25 23 20 19 19 19 20 20 19 18 17 18 20 20 21 20 21 20 23 24 23 21 21 21 18
15 21 18 17 10 12 14 19 19 22 20 22 23 23 24 26 27 33 32 31 25 21 21 20 21 20 20 18 17 18 17 19 17 17 21 24 22 23 22 21 19 24 26
17 18 14 11 15 15 17 23 25 26 21 22 24 24 25 25 24 25 26 31 30 27 28 24 23 22 20 18 17 18 17 18 20 22 22 24 22 23 22 21 20 24 22
14 13 10 12 15 19 21 26 22 20 22 25 24 25 26 27 27 25 25 25 23 23 23 24 24 23 20 18 17 17 17 19 21 20 19 21 22 20 21 23 21 20 20
7 6 8 10 12 20 19 16 18 19 21 23 22 24 25 26 26 26 27 26 26 25 23 25 26 23 24 24 22 17 17 17 19 19 18 17 18 22 22 24 16 11 23
1 5 10 12 11 12 15 19 19 17 22 23 24 24 24 26 27 26 27 27 28 27 25 23 19 24 26 22 21 19 18 19 18 18 16 17 20 21 16 20 13 22 24
Wind_Direction
163 154 150 149 149 146 139 126 120 111 94 75 58 39 17 16 21 12 4 337 315 235 211 181 152 137 123 116 113 79 83 74 37 16 41 26 23 22 12 10 7 4 2
166 165 155 151 148 152 137 136 129 110 90 61 36 33 24 22 30 23 9 3 356 268 191 201 167 157 152 136 96 99 92 53 10 356 344 344 360 355 352 357 359 354 348
177 166 161 160 160 149 138 131 120 103 69 45 31 26 28 27 13 10 8 10 11 13 185 164 152 162 161 159 126 17 314 326 327 326 328 304 317 324 320 330 338 339 335
174 167 166 163 158 157 157 144 121 91 55 15 22 21 25 350 346 350 31 78 36 231 189 182 174 155 122 55 339 321 321 325 322 318 313 310 306 311 304 314 319 324 322
173 181 168 166 163 164 152 140 119 115 72 16 16 312 272 255 243 186 162 162 204 171 224 209 216 240 266 292 334 324 316 313 314 314 315 315 314 315 308 306 310 312 309
184 179 176 169 170 164 151 146 143 119 99 247 241 243 259 242 223 212 187 211 193 191 231 240 258 268 288 294 305 315 311 313 312 312 313 311 308 306 305 305 303 301 302
189 184 181 174 171 166 165 157 151 147 182 241 253 241 250 238 235 230 226 245 217 260 253 260 264 276 275 301 286 299 302 305 309 311 313 313 311 306 304 302 299 298 295
194 189 183 176 174 170 170 168 163 173 227 240 290 291 260 205 221 233 242 239 243 265 269 257 264 275 271 282 280 288 289 300 304 306 309 310 309 305 301 299 296 296 295
193 193 186 180 177 180 181 178 182 200 224 228 235 276 272 287 330 180 230 244 251 262 272 262 269 276 279 282 284 279 284 284 290 306 308 307 306 303 299 296 293 292 290
194 198 191 187 180 179 187 189 193 206 207 228 219 240 258 281 277 272 204 225 242 268 268 271 271 275 272 275 275 279 276 291 295 306 305 303 300 297 293 291 289 287 286
198 201 196 191 186 187 190 197 201 211 228 231 229 218 236 248 258 273 284 280 257 264 270 266 274 278 275 271 275 275 280 288 298 303 303 301 299 297 295 292 290 288 286
197 201 201 199 196 192 192 204 203 210 228 230 233 235 238 252 266 259 269 274 282 280 277 284 281 278 275 273 276 268 283 299 301 304 304 303 301 299 296 294 291 288 287
200 206 200 198 199 197 203 195 202 217 206 217 218 236 238 248 259 264 272 278 282 276 272 273 280 278 281 279 277 276 287 306 303 305 304 304 300 298 295 292 289 287 287
212 205 199 202 201 205 199 210 213 212 207 219 222 235 236 242 248 257 267 279 279 276 274 266 265 271 278 279 280 287 296 296 298 297 300 299 297 296 293 291 288 289 288
206 203 200 200 204 198 208 204 208 216 221 228 231 230 239 247 253 261 262 264 269 279 281 288 290 279 272 276 283 284 291 296 293 295 296 296 295 293 292 291 289 289 288
206 204 200 202 202 204 202 206 209 210 230 237 237 235 241 253 259 260 261 257 258 267 279 284 287 291 288 284 284 290 292 294 297 295 293 293 294 295 294 290 287 286 288
205 203 201 204 204 199 198 195 210 226 231 249 251 247 250 253 255 258 258 260 260 265 273 281 286 290 281 281 288 290 291 295 296 296 294 294 296 297 293 290 288 288 289
209 206 206 204 198 199 197 201 201 202 256 270 254 249 252 253 254 258 260 259 260 266 275 282 288 289 287 284 288 289 291 294 295 296 295 296 298 295 291 288 289 289 288
215 213 212 203 187 185 191 198 181 268 301 264 258 258 255 254 254 256 257 262 264 266 267 275 283 287 287 286 284 287 291 295 296 298 298 300 297 292 289 287 286 286 287
209 205 200 187 199 200 188 180 224 296 292 268 262 260 258 255 256 256 257 257 262 269 269 271 277 284 285 285 283 284 291 298 300 304 303 301 295 292 287 281 284 284 286
190 196 191 173 183 185 190 195 237 275 283 274 267 264 260 257 254 249 254 256 260 264 266 270 276 281 281 281 283 295 292 298 301 302 304 305 307 301 295 288 278 278 282
194 180 179 162 158 195 211 227 247 280 283 277 275 272 268 264 258 249 247 244 249 261 258 265 276 277 279 279 283 286 290 295 299 307 310 306 306 301 297 290 291 297 300
162 151 155 167 204 217 244 255 265 279 276 277 279 279 276 271 261 254 253 248 245 243 245 255 266 268 274 275 281 280 281 289 297 303 304 300 306 302 297 295 294 299 303
158 166 186 207 230 255 260 273 278 281 280 280 280 279 277 273 267 255 253 244 241 242 243 244 246 259 264 267 269 272 280 284 288 292 298 298 307 302 304 300 293 292 303
158 195 227 241 250 274 280 279 281 286 283 282 283 280 276 273 269 263 246 247 245 247 246 242 238 243 246 251 260 265 271 279 287 295 303 300 307 313 308 300 284 289 312
230 256 274 286 286 280 276 285 293 290 287 286 286 284 280 272 267 260 245 241 243 247 244 240 247 249 249 253 255 244 258 268 283 291 296 297 304 310 313 295 302 308 309